Time,TemperatureF,DewpointF,PressureIn,WindDirection,WindDirectionDegrees,WindSpeedMPH,WindSpeedGustMPH,Humidity,HourlyPrecipIn,Conditions,Clouds,dailyrainin,SolarRadiationWatts/m^2,SoftwareType,DateUTC
2013-01-02 00:22:00,35.0,6.0,-100.00,NNE,25,13.0,23.0,29,0.00,,,0.00,0.000000,,2013-01-02 08:22:00,
2013-01-02 00:32:00,35.0,6.0,-100.00,NNE,25,13.0,23.0,29,0.00,,,0.00,0.000000,,2013-01-02 08:32:00,
2013-01-02 00:42:00,35.0,6.0,-100.00,NNE,25,13.0,23.0,29,0.00,,,0.00,0.000000,,2013-01-02 08:42:00,
2013-01-02 00:52:00,35.0,6.0,-100.00,NNE,25,13.0,23.0,29,0.00,,,0.00,0.000000,,2013-01-02 08:52:00,
2013-01-02 01:22:00,31.0,7.0,-100.00,East,83,3.0,18.0,36,0.00,,,0.00,0.000000,,2013-01-02 09:22:00,
2013-01-02 01:32:00,31.0,7.0,-100.00,East,83,3.0,18.0,36,0.00,,,0.00,0.000000,,2013-01-02 09:32:00,
2013-01-02 01:43:00,31.0,7.0,-100.00,East,83,3.0,18.0,36,0.00,,,0.00,0.000000,,2013-01-02 09:43:00,
2013-01-02 01:52:00,31.0,7.0,-100.00,East,83,3.0,18.0,36,0.00,,,0.00,0.000000,,2013-01-02 09:52:00,
2013-01-02 02:12:00,28.0,8.0,-100.00,SW,227,3.0,19.0,42,0.00,,,0.00,0.000000,,2013-01-02 10:12:00,
2013-01-02 02:22:00,28.0,8.0,-100.00,SW,227,3.0,19.0,42,0.00,,,0.00,0.000000,,2013-01-02 10:22:00,
2013-01-02 02:32:00,28.0,8.0,-100.00,SW,227,3.0,19.0,42,0.00,,,0.00,0.000000,,2013-01-02 10:32:00,
2013-01-02 02:42:00,28.0,8.0,-100.00,SW,227,3.0,19.0,42,0.00,,,0.00,0.000000,,2013-01-02 10:42:00,
2013-01-02 02:52:00,28.0,8.0,-100.00,SW,227,3.0,19.0,42,0.00,,,0.00,0.000000,,2013-01-02 10:52:00,
2013-01-02 03:22:00,27.0,7.0,-100.00,NW,319,2.0,10.0,42,0.00,,,0.00,0.000000,,2013-01-02 11:22:00,
2013-01-02 03:32:00,27.0,7.0,-100.00,NW,319,2.0,10.0,42,0.00,,,0.00,0.000000,,2013-01-02 11:32:00,
2013-01-02 03:42:00,27.0,7.0,-100.00,NW,319,2.0,10.0,42,0.00,,,0.00,0.000000,,2013-01-02 11:42:00,
2013-01-02 03:52:00,27.0,7.0,-100.00,NW,319,2.0,10.0,42,0.00,,,0.00,0.000000,,2013-01-02 11:52:00,
2013-01-02 04:22:00,26.0,6.0,-100.00,NNE,17,1.0,6.0,42,0.00,,,0.00,0.000000,,2013-01-02 12:22:00,
2013-01-02 04:32:00,26.0,6.0,-100.00,NNE,17,1.0,6.0,42,0.00,,,0.00,0.000000,,2013-01-02 12:32:00,
2013-01-02 04:42:00,26.0,6.0,-100.00,NNE,17,1.0,6.0,42,0.00,,,0.00,0.000000,,2013-01-02 12:42:00,
2013-01-02 04:52:00,26.0,6.0,-100.00,NNE,17,1.0,6.0,42,0.00,,,0.00,0.000000,,2013-01-02 12:52:00,
2013-01-02 05:22:00,25.0,6.0,-100.00,SW,228,1.0,6.0,44,0.00,,,0.00,0.000000,,2013-01-02 13:22:00,
2013-01-02 05:32:00,25.0,6.0,-100.00,SW,228,1.0,6.0,44,0.00,,,0.00,0.000000,,2013-01-02 13:32:00,
2013-01-02 05:42:00,25.0,6.0,-100.00,SW,228,1.0,6.0,44,0.00,,,0.00,0.000000,,2013-01-02 13:42:00,
2013-01-02 05:52:00,25.0,6.0,-100.00,SW,228,1.0,6.0,44,0.00,,,0.00,0.000000,,2013-01-02 13:52:00,
2013-01-02 06:22:00,23.0,7.0,-100.00,ENE,70,1.0,4.0,50,0.00,,,0.00,0.000000,,2013-01-02 14:22:00,
2013-01-02 06:32:00,23.0,7.0,-100.00,ENE,70,1.0,4.0,50,0.00,,,0.00,0.000000,,2013-01-02 14:32:00,
2013-01-02 06:42:00,23.0,7.0,-100.00,ENE,70,1.0,4.0,50,0.00,,,0.00,0.000000,,2013-01-02 14:42:00,
2013-01-02 06:53:00,23.0,7.0,-100.00,ENE,70,1.0,4.0,50,0.00,,,0.00,0.000000,,2013-01-02 14:53:00,
2013-01-02 07:22:00,23.0,7.0,-100.00,WNW,287,4.0,5.0,50,0.00,,,0.00,0.000000,,2013-01-02 15:22:00,
2013-01-02 07:33:00,23.0,7.0,-100.00,WNW,287,4.0,5.0,50,0.00,,,0.00,0.000000,,2013-01-02 15:33:00,
2013-01-02 07:42:00,23.0,7.0,-100.00,WNW,287,4.0,5.0,50,0.00,,,0.00,0.000000,,2013-01-02 15:42:00,
2013-01-02 07:52:00,23.0,7.0,-100.00,WNW,287,4.0,5.0,50,0.00,,,0.00,0.000000,,2013-01-02 15:52:00,
2013-01-02 08:22:00,31.0,9.0,-100.00,WSW,243,4.0,7.0,39,0.00,,,0.00,40.000000,,2013-01-02 16:22:00,
2013-01-02 08:33:00,31.0,9.0,-100.00,WSW,243,4.0,7.0,39,0.00,,,0.00,40.000000,,2013-01-02 16:33:00,
2013-01-02 08:42:00,31.0,9.0,-100.00,WSW,243,4.0,7.0,39,0.00,,,0.00,40.000000,,2013-01-02 16:42:00,
2013-01-02 08:53:00,31.0,9.0,-100.00,WSW,243,4.0,7.0,39,0.00,,,0.00,40.000000,,2013-01-02 16:53:00,
2013-01-02 09:22:00,43.0,10.0,-100.00,NNE,24,14.0,14.0,25,0.00,,,0.00,247.000000,,2013-01-02 17:22:00,
2013-01-02 10:22:00,47.0,9.0,-100.00,NE,39,13.0,19.0,21,0.00,,,0.00,431.000000,,2013-01-02 18:22:00,
2013-01-02 10:33:00,47.0,9.0,-100.00,NE,39,13.0,19.0,21,0.00,,,0.00,431.000000,,2013-01-02 18:33:00,
2013-01-02 10:42:00,47.0,9.0,-100.00,NE,39,13.0,19.0,21,0.00,,,0.00,431.000000,,2013-01-02 18:42:00,
2013-01-02 10:52:00,47.0,9.0,-100.00,NE,39,13.0,19.0,21,0.00,,,0.00,431.000000,,2013-01-02 18:52:00,
2013-01-02 11:22:00,50.0,9.0,-100.00,NE,34,13.0,20.0,19,0.00,,,0.00,565.000000,,2013-01-02 19:22:00,
2013-01-02 11:32:00,50.0,9.0,-100.00,NE,34,13.0,20.0,19,0.00,,,0.00,565.000000,,2013-01-02 19:32:00,
2013-01-02 11:42:00,50.0,9.0,-100.00,NE,34,13.0,20.0,19,0.00,,,0.00,565.000000,,2013-01-02 19:42:00,
2013-01-02 11:52:00,50.0,9.0,-100.00,NE,34,13.0,20.0,19,0.00,,,0.00,565.000000,,2013-01-02 19:52:00,
2013-01-02 12:22:00,50.0,8.0,-100.00,NE,35,12.0,22.0,18,0.00,,,0.00,624.000000,,2013-01-02 20:22:00,
2013-01-02 12:33:00,50.0,8.0,-100.00,NE,35,12.0,22.0,18,0.00,,,0.00,624.000000,,2013-01-02 20:33:00,
2013-01-02 12:42:00,50.0,8.0,-100.00,NE,35,12.0,22.0,18,0.00,,,0.00,624.000000,,2013-01-02 20:42:00,
2013-01-02 12:53:00,50.0,8.0,-100.00,NE,35,12.0,22.0,18,0.00,,,0.00,624.000000,,2013-01-02 20:53:00,
2013-01-02 13:22:00,53.0,8.0,-100.00,ENE,63,12.0,20.0,16,0.00,,,0.00,643.000000,,2013-01-02 21:22:00,
2013-01-02 13:32:00,53.0,8.0,-100.00,ENE,63,12.0,20.0,16,0.00,,,0.00,643.000000,,2013-01-02 21:32:00,
2013-01-02 13:42:00,53.0,8.0,-100.00,ENE,63,12.0,20.0,16,0.00,,,0.00,643.000000,,2013-01-02 21:42:00,
2013-01-02 13:52:00,53.0,8.0,-100.00,ENE,63,12.0,20.0,16,0.00,,,0.00,643.000000,,2013-01-02 21:52:00,
2013-01-02 14:22:00,54.0,7.0,-100.00,ENE,60,10.0,18.0,15,0.00,,,0.00,579.000000,,2013-01-02 22:22:00,
2013-01-02 14:32:00,54.0,7.0,-100.00,ENE,60,10.0,18.0,15,0.00,,,0.00,579.000000,,2013-01-02 22:32:00,
2013-01-02 14:42:00,54.0,7.0,-100.00,ENE,60,10.0,18.0,15,0.00,,,0.00,579.000000,,2013-01-02 22:42:00,
2013-01-02 14:52:00,54.0,7.0,-100.00,ENE,60,10.0,18.0,15,0.00,,,0.00,579.000000,,2013-01-02 22:52:00,
2013-01-02 15:22:00,53.0,7.0,-100.00,ENE,73,10.0,18.0,15,0.00,,,0.00,454.000000,,2013-01-02 23:22:00,
2013-01-02 15:33:00,53.0,7.0,-100.00,ENE,73,10.0,18.0,15,0.00,,,0.00,454.000000,,2013-01-02 23:33:00,
2013-01-02 15:42:00,53.0,7.0,-100.00,ENE,73,10.0,18.0,15,0.00,,,0.00,454.000000,,2013-01-02 23:42:00,
2013-01-02 15:52:00,53.0,7.0,-100.00,ENE,73,10.0,18.0,15,0.00,,,0.00,454.000000,,2013-01-02 23:52:00,
2013-01-02 16:22:00,53.0,8.0,-100.00,ENE,78,10.0,15.0,16,0.00,,,0.00,276.000000,,2013-01-03 00:22:00,
2013-01-02 16:37:00,53.0,8.0,-100.00,ENE,78,10.0,15.0,16,0.00,,,0.00,276.000000,,2013-01-03 00:37:00,
2013-01-02 16:52:00,53.0,8.0,-100.00,ENE,78,10.0,15.0,16,0.00,,,0.00,276.000000,,2013-01-03 00:52:00,
2013-01-02 17:22:00,44.0,7.0,-100.00,NE,35,8.0,11.0,21,0.00,,,0.00,63.000000,,2013-01-03 01:22:00,
2013-01-02 17:32:00,44.0,7.0,-100.00,NE,35,8.0,11.0,21,0.00,,,0.00,63.000000,,2013-01-03 01:32:00,
2013-01-02 17:42:00,44.0,7.0,-100.00,NE,35,8.0,11.0,21,0.00,,,0.00,63.000000,,2013-01-03 01:42:00,
2013-01-02 17:52:00,44.0,7.0,-100.00,NE,35,8.0,11.0,21,0.00,,,0.00,63.000000,,2013-01-03 01:52:00,
2013-01-02 18:22:00,45.0,7.0,-100.00,NNE,15,9.0,13.0,21,0.00,,,0.00,0.000000,,2013-01-03 02:22:00,
2013-01-02 18:33:00,45.0,7.0,-100.00,NNE,15,9.0,13.0,21,0.00,,,0.00,0.000000,,2013-01-03 02:33:00,
2013-01-02 18:42:00,45.0,7.0,-100.00,NNE,15,9.0,13.0,21,0.00,,,0.00,0.000000,,2013-01-03 02:42:00,
2013-01-02 18:52:00,45.0,7.0,-100.00,NNE,15,9.0,13.0,21,0.00,,,0.00,0.000000,,2013-01-03 02:52:00,
2013-01-02 19:22:00,36.0,8.0,30.15,NW,322,11.0,14.0,31,0.00,,,0.00,0.000000,,2013-01-03 03:22:00,
2013-01-02 19:46:00,36.0,8.0,30.15,NW,322,11.0,14.0,31,0.00,,,0.00,0.000000,,2013-01-03 03:46:00,
2013-01-02 19:52:00,36.0,8.0,30.15,NW,322,11.0,14.0,31,0.00,,,0.00,0.000000,,2013-01-03 03:52:00,
2013-01-02 20:22:00,34.0,9.0,30.14,NNW,334,9.0,13.0,34,0.00,,,0.00,0.000000,,2013-01-03 04:22:00,
2013-01-02 20:32:00,34.0,9.0,30.14,NNW,334,9.0,13.0,34,0.00,,,0.00,0.000000,,2013-01-03 04:32:00,
2013-01-02 20:42:00,34.0,9.0,30.14,NNW,334,9.0,13.0,34,0.00,,,0.00,0.000000,,2013-01-03 04:42:00,
2013-01-02 20:52:00,34.0,9.0,30.14,NNW,334,9.0,13.0,34,0.00,,,0.00,0.000000,,2013-01-03 04:52:00,
2013-01-02 21:22:00,34.0,9.0,-100.00,NNW,340,8.0,12.0,34,0.00,,,0.00,0.000000,,2013-01-03 05:22:00,
2013-01-02 21:33:00,34.0,9.0,-100.00,NNW,340,8.0,12.0,34,0.00,,,0.00,0.000000,,2013-01-03 05:33:00,
2013-01-02 21:42:00,34.0,9.0,-100.00,NNW,340,8.0,12.0,34,0.00,,,0.00,0.000000,,2013-01-03 05:42:00,
2013-01-02 21:52:00,34.0,9.0,-100.00,NNW,340,8.0,12.0,34,0.00,,,0.00,0.000000,,2013-01-03 05:52:00,
2013-01-02 22:22:00,36.0,8.0,-100.00,NW,326,6.0,10.0,31,0.00,,,0.00,0.000000,,2013-01-03 06:22:00,
2013-01-02 22:32:00,36.0,8.0,-100.00,NW,326,6.0,10.0,31,0.00,,,0.00,0.000000,,2013-01-03 06:32:00,
2013-01-02 22:42:00,36.0,8.0,-100.00,NW,326,6.0,10.0,31,0.00,,,0.00,0.000000,,2013-01-03 06:42:00,
2013-01-02 22:52:00,36.0,8.0,-100.00,NW,326,6.0,10.0,31,0.00,,,0.00,0.000000,,2013-01-03 06:52:00,
2013-01-02 23:22:00,33.0,9.0,-100.00,NW,321,5.0,9.0,36,0.00,,,0.00,0.000000,,2013-01-03 07:22:00,
2013-01-02 23:32:00,33.0,9.0,-100.00,NW,321,5.0,9.0,36,0.00,,,0.00,0.000000,,2013-01-03 07:32:00,
2013-01-02 23:42:00,33.0,9.0,-100.00,NW,321,5.0,9.0,36,0.00,,,0.00,0.000000,,2013-01-03 07:42:00,
2013-01-02 23:52:00,33.0,9.0,-100.00,NW,321,5.0,9.0,36,0.00,,,0.00,0.000000,,2013-01-03 07:52:00,